Regional Weather Roundup
Issued by NWS

Home | Current Version | Previous Version | Text Only | Print | Product List | Glossary On
Versions: 1 2 3 4 5 6 7 8 9 10 11 12 13 14 15 16 17 18 19 20 21 22 23 24 25 26 27 28 29 30 31 32 33 34 35 36 37 38 39 40 41 42 43 44 45 46 47 48 49 50
000
ASUS43 KTOP 280008
RWRKS

WEATHER ROUNDUP FOR KANSAS
NATIONAL WEATHER SERVICE GOODLAND KS
600 PM CST FRI FEB 27 2015

NOTE:  "FAIR" INDICATES FEW OR NO CLOUDS BELOW 12,000 FEET WITH NO
SIGNIFICANT WEATHER AND/OR OBSTRUCTIONS TO VISIBILITY.

KSZ001>006-013>018-027>032-041>047-280100-
NORTHWEST KANSAS

CITY           SKY/WX    TMP DP  RH WIND       PRES   REMARKS
GOODLAND       FLURRIES  14   8  77 S21G26    30.15S WCI  -4
6HR MIN TEMP:  14; 6HR MAX TEMP:  18; 6HR PCP: TRACE;

HAYS           CLOUDY    18   1  49 S10       30.37S WCI   6
HILL CITY      CLOUDY    18   6  59 S13       30.34F WCI   5
6HR MIN TEMP:  16; 6HR MAX TEMP:  23;

RUSSELL        CLEAR     19   3  49 S12       30.38S WCI   7
6HR MIN TEMP:  15; 6HR MAX TEMP:  21; 6HR PCP: TRACE;

$$

KSZ061>065-074>080-084>089-280100-
SOUTHWEST KANSAS

CITY           SKY/WX    TMP DP  RH WIND       PRES   REMARKS
DODGE CITY     CLOUDY    14   6  70 SE14      30.32S WCI  -1
6HR MIN TEMP:  13; 6HR MAX TEMP:  17; 6HR PCP:  0.01;

ELKHART          N/A     14   4  64 SE18        N/A  WCI  -3
GARDEN CITY    FLURRIES  13   7  77 SE14      30.26F WCI  -2
6HR MIN TEMP:  13; 6HR MAX TEMP:  15; 6HR PCP:  0.01;

GREAT BEND     CLOUDY    18   7  62 SE14      30.40S WCI   4
LIBERAL        CLOUDY    16   7  67 E13       30.27S WCI   2
PRATT          LGT SNOW  14  10  85 SE9       30.41S
$$

KSZ066>073-081>083-090>101-280100-
SOUTHEAST KANSAS

CITY           SKY/WX    TMP DP  RH WIND       PRES   REMARKS
CHANUTE        LGT SNOW  18  11  74 E5        30.53S
6HR MIN TEMP:  16; 6HR MAX TEMP:  20; 6HR PCP: TRACE;

COFFEYVILLE    CLOUDY    19   9  65 SE5       30.55S
6HR MIN TEMP:  18; 6HR MAX TEMP:  22; 6HR PCP: TRACE;

HUTCHINSON     LGT SNOW  16   9  74 SE8       30.46R
6HR MIN TEMP:  15; 6HR MAX TEMP:  18; 6HR PCP: TRACE;

MEDICINE LODGE   N/A     15   9  76 E7        30.44F
NEWTON         CLOUDY    16   7  67 SE7       30.48R
PARSONS        CLOUDY    20   3  48 CALM      30.54S
6HR MIN TEMP:  18; 6HR MAX TEMP:  22;

WICHITA INTL   LGT SNOW  16   9  74 SE5       30.48S
6HR MIN TEMP:  14; 6HR MAX TEMP:  17; 6HR PCP:  0.04;

WICHITA JABRA  FLURRIES  15   9  76 SE3       30.49R
6HR MIN TEMP:  13; 6HR MAX TEMP:  16; 6HR PCP: TRACE;

WICHITA MCCONL FLURRIES  16  10  79 E3        30.48R
WINFIELD       CLOUDY    18  10  71 E6        30.50S
6HR MIN TEMP:  15; 6HR MAX TEMP:  19; 6HR PCP: TRACE;

$$

KSZ007>012-019>026-033>040-048>060-102>105-280100-
NORTHEAST KANSAS

CITY           SKY/WX    TMP DP  RH WIND       PRES   REMARKS
CONCORDIA      PTCLDY    17   3  54 SE9       30.45F
6HR MIN TEMP:  14; 6HR MAX TEMP:  20; 6HR PCP: TRACE;

EMPORIA        LGT SNOW  16   6  65 E6        30.49F
6HR MIN TEMP:  14; 6HR MAX TEMP:  19; 6HR PCP: TRACE;

LAWRENCE       CLOUDY    18   0  45 NE5       30.56S
6HR MIN TEMP:  14; 6HR MAX TEMP:  19;

MANHATTAN      CLOUDY    19   3  49 E7        30.51F
6HR MIN TEMP:  15; 6HR MAX TEMP:  20;

MARYSVILLE     MOCLDY    19   1  45 CALM      30.49S
OLATHE IND     CLOUDY    19   1  45 E6        30.53S
6HR MIN TEMP:  12; 6HR MAX TEMP:  20; 6HR PCP: TRACE;

OLATHE EXE     CLOUDY    19   0  43 E5        30.52S
6HR MIN TEMP:  13; 6HR MAX TEMP:  20;

SALINA         CLOUDY    20   3  48 SE10      30.48S WCI   9
6HR MIN TEMP:  16; 6HR MAX TEMP:  24;

TOPEKA BILLARD CLOUDY    19  -1  41 SE3       30.55S
6HR MIN TEMP:  13; 6HR MAX TEMP:  20;

TOPEKA FORBES  CLOUDY    19   0  43 CALM      30.52S
6HR MIN TEMP:  14; 6HR MAX TEMP:  20;

$$



USA.gov is the U.S. government's official web portal to all federal, state and local government web resources and services.